Location: Cuiry
(49.3858°N, 3.7708°E)
Time: 23:41:22
(UTC+00:00)

Radarsat Rocket - Pass Details

Date: 12 January 2026
Orbit: 933 x 1491 km, 100.5° (Epoch: 9 February)

Event Time Altitude Azimuth Distance (km) Brightness Sun altitude
Rises 17:38:06 0° 145° (SE) 3,888 7.0 -13.8°
Reaches altitude 10° 17:40:46 10° 142° (SE) 2,866 6.2 -14.2°
Maximum altitude 17:46:55 56° 66° (ENE) 1,158 4.1 -15.2°
Drops below altitude 10° 17:52:40 10° 349° (N) 2,672 6.3 -16.1°
Sets 17:55:04 0° 346° (NNW) 3,605 7.0 -16.5°
